Content
SEND FEEDBACK

Daily
Averages
Monthly
Summary
United States of America

ANN ARBOR, MICHIGAN


Home > North America > United States > Michigan
Elevation: 759 feet     Latitude: 42 17N     Longitude: 083 43W

WEATHER
 
SELECT A DAY
Number of Records: 207,075;   Date Range: 1/1/95 - 10/23/14
 
SHARE

PRINT THIS DATA

[ ← Previous Day ]
WEATHER ALMANAC - FEBRUARY 14, 2013
[ Next Day → ]
[ °C ]   °F
Weather ElementAverageHighLow
Temperature34.8 °F39.2 °F (3:10 pm)26.1 °F (3:53 am)
Dewpoint30 °F34 °F (11:53 am)25 °F (2:53 am)
Humidity82.9 %96 % (3:53 am)68 % (6:53 pm)
Barometer29.75 in29.86 in (11:53 pm)29.68 in (3:10 pm)
Wind Speed12 mph24.2 mph (8:53 pm)
Wind Gust34.5 mph (8:53 pm)
Weather ElementAverage
Visibility6.4 mi
Wind DirectionSW (222.1 °)

Weather ElementTotal
Precipitation---
Heating Degree Days32.4 (Base 65)
Averaged from 38 records on February 14, 2013
WEATHER CONDITIONS BREAKOUT
WIND DIRECTION BREAKOUT
WEATHER BY HOUR - FEBRUARY 14, 2013
[ °C ]   °F
Local TimeTemperatureDewpointHumidityBarometerVisibilityWind DirectionWind SpeedGust SpeedPrecipitationEventsConditions
1:53 AM28.9 °F27.0 °F92 %29.79 in5.0 miSSW (200°)3.5 mphOvercast
2:53 AM27.0 °F25.0 °F92 %29.79 in5.0 miSSW (200°)3.5 mphClear
3:53 AM26.1 °F25.0 °F96 %29.78 in4.0 miSSW (210°)3.5 mphClear
4:53 AM27.0 °F25.0 °F92 %29.78 in5.0 miSSW (210°)5.8 mphClear
5:26 AM28.4 °F26.6 °F93 %29.75 in5.0 miSW (220°)4.6 mphMostly Cloudy
5:49 AM28.4 °F26.6 °F93 %29.75 in5.0 miSSW (200°)5.8 mphScattered Clouds
5:53 AM28.0 °F27.0 °F96 %29.78 in5.0 miSSW (200°)5.8 mphMostly Cloudy
6:53 AM30.0 °F28.0 °F92 %29.78 in5.0 miSSW (210°)5.8 mphOvercast
7:53 AM30.9 °F28.0 °F89 %29.78 in4.0 miSSW (200°)5.8 mphOvercast
8:53 AM32.0 °F30.0 °F92 %29.79 in4.0 miSouth (190°)6.9 mphOvercast
9:53 AM34.0 °F30.9 °F89 %29.78 in4.0 miSSW (200°)6.9 mphOvercast
10:12 AM35.6 °F32.0 °F87 %29.75 in4.0 miSouth (190°)10.4 mphOvercast
10:53 AM35.1 °F32.0 °F89 %29.76 in2.0 miSouth (190°)8.1 mph0.00 inSnowLight Snow
10:57 AM35.6 °F32.0 °F87 %29.73 in1.8 miSouth (180°)8.1 mph18.4 mph0.00 inSnowLight Snow
11:18 AM35.6 °F33.8 °F93 %29.72 in2.5 miSouth (180°)8.1 mph0.00 inSnowLight Snow
11:31 AM35.6 °F33.8 °F93 %29.72 in3.0 miSouth (180°)10.4 mph17.3 mph0.00 inOvercast
11:53 AM36.0 °F34.0 °F93 %29.74 in4.0 miSouth (190°)11.5 mph18.4 mph0.00 inOvercast
12:25 PM37.4 °F33.8 °F87 %29.71 in4.0 miSSW (200°)18.4 mph24.2 mphOvercast
12:53 PM37.9 °F33.1 °F83 %29.72 in4.0 miSouth (190°)17.3 mph21.9 mphHaze
1:53 PM37.9 °F33.1 °F83 %29.71 in5.0 miSSW (200°)12.7 mph19.6 mphHaze
2:53 PM39.0 °F33.1 °F79 %29.70 in6.0 miSW (220°)11.5 mphHaze
3:10 PM39.2 °F33.8 °F81 %29.68 in6.0 miSW (220°)10.4 mph21.9 mphHaze
3:53 PM39.0 °F34.0 °F82 %29.70 in7.0 miSW (220°)11.5 mphOvercast
4:18 PM39.2 °F33.8 °F81 %29.68 in7.0 miSW (220°)9.2 mphOvercast
4:46 PM39.2 °F33.8 °F81 %29.69 in7.0 miSW (230°)9.2 mphOvercast
4:53 PM39.0 °F33.1 °F79 %29.71 in8.0 miSW (230°)11.5 mphOvercast
5:01 PM39.2 °F32.0 °F75 %29.69 in9.0 miWSW (240°)18.4 mph27.6 mphOvercast
5:08 PM39.2 °F30.2 °F70 %29.69 in10.0 miWSW (240°)20.7 mph29.9 mphOvercast
5:36 PM39.2 °F30.2 °F70 %29.71 in10.0 miWest (260°)20.7 mph31.1 mphOvercast
6:53 PM37.9 °F28.0 °F68 %29.77 in10.0 miWSW (250°)13.8 mphOvercast
7:34 PM37.4 °F28.4 °F70 %29.76 in10.0 miWSW (250°)19.6 mph25.3 mphOvercast
7:53 PM37.9 °F28.9 °F70 %29.79 in10.0 miWest (260°)19.6 mph26.5 mphOvercast
8:53 PM36.0 °F28.0 °F73 %29.81 in10.0 miWest (280°)24.2 mph34.5 mphOvercast
9:07 PM35.6 °F26.6 °F70 %29.80 in10.0 miWNW (290°)19.6 mph31.1 mphOvercast
9:23 PM35.6 °F26.6 °F70 %29.80 in10.0 miWest (280°)23.0 mph29.9 mphOvercast
9:53 PM35.1 °F27.0 °F72 %29.84 in10.0 miWest (270°)17.3 mphOvercast
10:53 PM35.1 °F27.0 °F72 %29.85 in10.0 miWest (270°)15.0 mph24.2 mphOvercast
11:53 PM34.0 °F27.0 °F75 %29.86 in10.0 miWest (270°)17.3 mph26.5 mphOvercast
Hourly data recorded from KARB, located miles away from Ann Arbor, Michigan







STORIES FROM OUR PARTNERS